COSMOS 970 DEB, 64965

Orbit data source: Space-Track

COSMOS 970 DEB, 64965 is space debris in LEO originally from a launch on Wed, 21 Dec 1977 UTC launched from the Tyuratam Missile And Space Complex (TTMTR). Debris objects in space refer to the collection of defunct objects orbiting the Earth. Examples of debris include non-operational satellites, rocket bodies, and fragments generated from explosions, collisions, or faulty payload assembly.

Loading next visibility...
Identifier
64965, 1977-121CA
Orbit
LEO
Country
Flag of CISCIS
Related business
Manufacturer
Unknown
Mission
Spacecraft
Bus & Motor
Unknown
Mass
Unknown
Launch date (UTC)
1977-12-21 (48 years ago)
Launch vehicle
Unknown
Launch site
Tyuratam Missile And Space Complex (TTMTR)
Object type
Payload
Rocket body
Debris
Shape & HBR
Unknown shape, 0.1 m
Radar Cross Section
Small (<0.1 m²)

Expand to show TLE details & history
Last TLE update: 2 weeks ago

TLE from 2 weeks ago
0 COSMOS 970 DEB
1 64965U 77121CA  26159.87126730  .00000633  00000-0  57267-3 0  9997
2 64965  65.8169  13.6771 0103077  70.9341 290.2858 13.88294269101079
Epoch: 2026-06-08T20:54Z
TLE epoch observation values (Epoch: 2026-06-08T20:54:37.494Z)
Latitude
-0.00003°
Longitude
162.76896°
Altitude
911.163 km
Speed
7.41 km/s
True Right ascension
00h 54m 42s
True Declination
0° 00' 00"
Sunlit
Object was in daylight at epoch
Visualization orbit readout
Latitude
Unknown
Longitude
Unknown
Altitude
Unknown
Speed
Unknown
Apparent Right ascension
Unknown
Apparent Declination
Unknown
Sunlit
N/A
Visualization observer readout
Local Sidereal Time
07:13:25
Azimuth
Unknown
Elevation
Unknown
Doppler factor
Unknown
Orbital elements
Apogee altitude
1,008.486 km
Perigee altitude
857.762 km
Semi-major axis
7,311.261 km
Eccentricity
0.01031
Inclination
65.8169°
RAAN
13.6771°
Arg. of periapsis
70.9341°
True anomaly
289.17299°
Mean anomaly
290.2858°
Eccentric anomaly
289.72988°
Mean motion
3.4718 °/min
Orbital period
103.69 mins
BSTAR
0.00057267
Loading maneuver chart data...
Computing Atmospheric mass density...
Loading historical data...
Loading historical data...
Loading historical data...
Loading historical data...
Loading historical data...
Loading historical data...
Loading historical data...

Documentation

Showing up to 5 results
|